Weather History for Harlan, IA

Change the Weather History Date:

Friday, February 10, 2012

  Actual Average Record
Temperature  
Mean Temperature 16 °F -  
Max Temperature 26 °F 34 °F 59 °F (2009)
Min Temperature 5 °F 13 °F -99 °F (2002)
Degree Days  
Heating Degree Days 49    
Moisture  
Dew Point 2 °F    
Average Humidity 61    
Maximum Humidity 93    
Minimum Humidity 48    
Precipitation  
Precipitation 0.00 in - - ()
Sea Level Pressure  
Sea Level Pressure 30.28 in    
Wind  
Wind Speed 19 mph (NNW)    
Max Wind Speed 30 mph    
Max Gust Speed 34 mph    
Visibility 9 miles    
Events      
Averages and records for this station are not official NWS values.
T = Trace of Precipitation, MM = Missing Value Source: NWS Daily Summary

Daily Weather History Graph

Daily Weather History Graph

Search for Another Location

Airport:

Trip Planner

Search our weather history database for the weather conditions in past years. The results will help you decide how hot, cold, wet, or windy it might be!

Date:

Astronomy

Feb. 10, 2012 Rise Set
Actual Time 7:23 AM CST 5:48 PM CST
Civil Twilight 6:54 AM CST 6:16 PM CST
Nautical Twilight 6:22 AM CST 6:49 PM CST
Astronomical Twilight 5:49 AM CST 7:21 PM CST
Moon 9:31 PM CST (2/10) 8:29 AM CST (2/10)
Length of Visible Light 11h 21m
Length of Day
10h 24m
Waning Gibbous, 90% of the Moon is Illuminated
Feb 10
Waning Gibbous
Feb 14
Last Quarter
Feb 21
New
Feb 29
First Quarter
Mar 8
Full

Hourly Weather History & Observations

Time (CST) Temp. Windchill Dew Point Humidity Pressure Visibility Wind Dir Wind Speed Gust Speed Precip Events Conditions
12:15 AM 26.6 °F 15.7 °F 24.8 °F 93% 30.06 in 5.0 mi West 12.7 mph - N/A   Clear
12:35 AM 26.6 °F 15.2 °F 23.0 °F 86% 30.06 in 7.0 mi WNW 13.8 mph - N/A   Clear
12:55 AM 26.6 °F 14.3 °F 23.0 °F 86% 30.06 in 7.0 mi NW 16.1 mph 19.6 mph N/A   Clear
1:15 AM 26.6 °F 13.4 °F 21.2 °F 80% 30.07 in 10.0 mi NNW 18.4 mph - N/A   Clear
1:35 AM 26.6 °F 13.1 °F 21.2 °F 80% 30.07 in 10.0 mi NNW 19.6 mph - N/A   Clear
1:55 AM 24.8 °F 10.3 °F 19.4 °F 80% 30.08 in 10.0 mi NNW 20.7 mph 25.3 mph N/A   Clear
2:15 AM 24.8 °F 11.9 °F 19.4 °F 80% 30.09 in 10.0 mi North 16.1 mph - N/A   Clear
2:35 AM 24.8 °F 12.4 °F 19.4 °F 80% 30.10 in 10.0 mi NNW 15.0 mph - N/A   Scattered Clouds
2:55 AM 26.6 °F 13.1 °F 19.4 °F 74% 30.10 in 10.0 mi North 19.6 mph 25.3 mph N/A   Mostly Cloudy
3:15 AM 26.6 °F 11.7 °F 17.6 °F 69% 30.11 in 10.0 mi NNW 24.2 mph 29.9 mph N/A   Overcast
3:35 AM 23.0 °F 8.0 °F 12.2 °F 63% 30.12 in 10.0 mi North 20.7 mph 29.9 mph N/A   Overcast
3:55 AM 23.0 °F 10.1 °F 12.2 °F 63% 30.14 in 10.0 mi NNW 15.0 mph - N/A   Overcast
4:15 AM 21.2 °F 6.4 °F 8.6 °F 58% 30.15 in 10.0 mi North 18.4 mph 26.5 mph N/A   Overcast
4:35 AM 17.6 °F 4.3 °F 3.2 °F 53% 30.16 in 10.0 mi North 12.7 mph - N/A   Scattered Clouds
4:55 AM 15.8 °F 2.1 °F 3.2 °F 58% 30.17 in 10.0 mi North 12.7 mph 17.3 mph N/A   Clear
5:15 AM 14.0 °F -3.0 °F 1.4 °F 57% 30.18 in 10.0 mi NNW 18.4 mph 25.3 mph N/A   Clear
5:35 AM 12.2 °F -7.1 °F -0.4 °F 57% 30.19 in 10.0 mi NNW 23.0 mph - N/A   Clear
5:55 AM 12.2 °F -6.3 °F -0.4 °F 57% 30.19 in 10.0 mi NNW 20.7 mph 24.2 mph N/A   Clear
6:15 AM 10.4 °F -9.9 °F -0.4 °F 62% 30.20 in 10.0 mi NNW 24.2 mph 28.8 mph N/A   Clear
6:35 AM 10.4 °F -9.5 °F -0.4 °F 62% 30.20 in 10.0 mi NNW 23.0 mph - N/A   Clear
6:55 AM 10.4 °F -7.7 °F -0.4 °F 62% 30.21 in 10.0 mi NNW 18.4 mph - N/A   Clear
7:15 AM 10.4 °F -9.5 °F -0.4 °F 62% 30.22 in 10.0 mi NNW 23.0 mph 27.6 mph N/A   Clear
7:35 AM 10.4 °F -8.6 °F -2.2 °F 57% 30.23 in 10.0 mi NNW 20.7 mph 27.6 mph N/A   Clear
7:55 AM 10.4 °F -8.6 °F -2.2 °F 57% 30.24 in 10.0 mi NNW 20.7 mph 26.5 mph N/A   Clear
8:15 AM 8.6 °F -9.5 °F -2.2 °F 62% 30.25 in 10.0 mi NW 17.3 mph - N/A   Clear
8:35 AM 10.4 °F -9.1 °F -2.2 °F 57% 30.26 in 10.0 mi NNW 21.9 mph 28.8 mph N/A   Clear
8:55 AM 10.4 °F -8.6 °F -2.2 °F 57% 30.27 in 10.0 mi NNW 20.7 mph - N/A   Clear
9:15 AM 10.4 °F -8.2 °F -0.4 °F 62% 30.28 in 10.0 mi NNW 19.6 mph - N/A   Clear
9:35 AM 10.4 °F -9.1 °F -0.4 °F 62% 30.28 in 10.0 mi NNW 21.9 mph 28.8 mph N/A   Clear
9:55 AM 10.4 °F -10.7 °F -0.4 °F 62% 30.28 in 10.0 mi NNW 26.5 mph 32.2 mph N/A   Clear
10:15 AM 12.2 °F -8.2 °F -0.4 °F 57% 30.29 in 4.0 mi NNW 26.5 mph 34.5 mph N/A   Haze
10:35 AM 12.2 °F -7.9 °F -0.4 °F 57% 30.30 in 7.0 mi NNW 25.3 mph 33.4 mph N/A   Clear
10:55 AM 10.4 °F -11.7 °F -0.4 °F 62% 30.31 in 7.0 mi NNW 29.9 mph 33.4 mph N/A   Clear
11:15 AM 12.2 °F -6.7 °F -0.4 °F 57% 30.32 in 10.0 mi NNW 21.9 mph 27.6 mph N/A   Clear
11:35 AM 12.2 °F -7.1 °F -2.2 °F 53% 30.32 in 10.0 mi North 23.0 mph 29.9 mph N/A   Clear
11:55 AM 12.2 °F -6.7 °F -0.4 °F 57% 30.32 in 10.0 mi North 21.9 mph 28.8 mph N/A   Clear
12:15 PM 12.2 °F -7.5 °F -0.4 °F 57% 30.32 in 7.0 mi NNW 24.2 mph 31.1 mph N/A   Clear
12:35 PM 12.2 °F -7.5 °F -2.2 °F 53% 30.33 in 10.0 mi NNW 24.2 mph 29.9 mph N/A   Clear
12:55 PM 12.2 °F -7.5 °F -0.4 °F 57% 30.32 in 10.0 mi NNW 24.2 mph 31.1 mph N/A   Clear
1:15 PM 12.2 °F -8.2 °F 1.4 °F 62% 30.32 in 7.0 mi NNW 26.5 mph 33.4 mph N/A   Clear
1:35 PM 12.2 °F -7.9 °F -0.4 °F 57% 30.33 in 5.0 mi NNW 25.3 mph 33.4 mph N/A   Haze
1:55 PM 12.2 °F -7.9 °F -0.4 °F 57% 30.33 in 10.0 mi NNW 25.3 mph - N/A   Clear
2:15 PM 12.2 °F -8.2 °F -0.4 °F 57% 30.34 in 5.0 mi NNW 26.5 mph 32.2 mph N/A   Haze
2:35 PM 12.2 °F -8.9 °F -0.4 °F 57% 30.35 in 10.0 mi NNW 28.8 mph 33.4 mph N/A   Clear
2:55 PM 14.0 °F -4.7 °F -0.4 °F 53% 30.36 in 10.0 mi NNW 23.0 mph - N/A   Clear
3:15 PM 14.0 °F -4.3 °F -0.4 °F 53% 30.38 in 10.0 mi NNW 21.9 mph 29.9 mph N/A   Clear
3:35 PM 14.0 °F -4.3 °F -0.4 °F 53% 30.38 in 10.0 mi NNW 21.9 mph - N/A   Clear
3:55 PM 14.0 °F -4.3 °F -0.4 °F 53% 30.39 in 10.0 mi NNW 21.9 mph 25.3 mph N/A   Clear
4:15 PM 14.0 °F -3.9 °F -2.2 °F 49% 30.40 in 10.0 mi NNW 20.7 mph 25.3 mph N/A   Clear
4:35 PM 12.2 °F -7.5 °F -2.2 °F 53% 30.40 in 10.0 mi NNW 24.2 mph 27.6 mph N/A   Clear
4:55 PM 12.2 °F -6.3 °F -2.2 °F 53% 30.41 in 10.0 mi NNW 20.7 mph 28.8 mph N/A   Clear
5:15 PM 12.2 °F -5.8 °F -2.2 °F 53% 30.42 in 10.0 mi NNW 19.6 mph 25.3 mph N/A   Clear
5:35 PM 10.4 °F -6.0 °F -2.2 °F 57% 30.43 in 10.0 mi NNW 15.0 mph - N/A   Clear
5:55 PM 10.4 °F -6.0 °F -4.0 °F 52% 30.44 in 10.0 mi North 15.0 mph - N/A   Clear
6:15 PM 10.4 °F -6.6 °F -5.8 °F 48% 30.45 in 10.0 mi NNW 16.1 mph - N/A   Clear
6:35 PM 8.6 °F -8.9 °F -5.8 °F 52% 30.45 in 10.0 mi NNW 16.1 mph - N/A   Clear
6:55 PM 8.6 °F -8.3 °F -5.8 °F 52% 30.47 in 10.0 mi North 15.0 mph - N/A   Clear
7:15 PM 8.6 °F -7.0 °F -5.8 °F 52% 30.48 in 10.0 mi NNW 12.7 mph - N/A   Clear
7:35 PM 6.8 °F -9.3 °F -5.8 °F 56% 30.49 in 10.0 mi North 12.7 mph - N/A   Clear
7:55 PM 6.8 °F -10.7 °F -5.8 °F 56% 30.49 in 10.0 mi NNW 15.0 mph - N/A   Clear
8:15 PM 6.8 °F -9.3 °F -5.8 °F 56% 30.50 in 10.0 mi NNW 12.7 mph - N/A   Clear
8:35 PM 5.0 °F -11.6 °F -5.8 °F 61% 30.51 in 10.0 mi NW 12.7 mph - N/A   Clear
8:55 PM 5.0 °F -13.0 °F -7.6 °F 56% 30.52 in 10.0 mi NNW 15.0 mph - N/A   Clear
9:15 PM 5.0 °F -13.0 °F -7.6 °F 56% 30.53 in 10.0 mi NNW 15.0 mph - N/A   Clear
9:35 PM 5.0 °F -13.6 °F -7.6 °F 56% 30.54 in 10.0 mi NNW 16.1 mph - N/A   Clear
9:55 PM 5.0 °F -13.0 °F -7.6 °F 56% 30.55 in 10.0 mi NNW 15.0 mph - N/A   Clear
10:15 PM 3.2 °F -15.3 °F -7.6 °F 61% 30.56 in 10.0 mi NNW 15.0 mph - N/A   Clear
10:35 PM 5.0 °F -13.0 °F -7.6 °F 56% 30.56 in 10.0 mi North 15.0 mph - N/A   Clear
10:55 PM 3.2 °F -16.5 °F -7.6 °F 61% 30.56 in 10.0 mi NNW 17.3 mph - N/A   Clear
11:15 PM 3.2 °F -15.9 °F -7.6 °F 61% 30.57 in 10.0 mi NNW 16.1 mph - N/A   Clear
11:35 PM 3.2 °F -14.6 °F -9.4 °F 56% 30.59 in 10.0 mi NNW 13.8 mph - N/A   Clear
11:55 PM 1.4 °F -16.1 °F -9.4 °F 61% 30.60 in 10.0 mi NNW 12.7 mph - N/A   Clear